Change the Weather History Date:

Sunday, January 27, 2013

  Actual Average Record
Temperature  
Mean Temperature 18 °F -  
Max Temperature 30 °F 14 °F 42 °F (1989)
Min Temperature 7 °F -7 °F -34 °F (1950)
Degree Days  
Heating Degree Days 46    
Moisture  
Dew Point 14 °F    
Average Humidity 73    
Maximum Humidity 81    
Minimum Humidity 63    
Precipitation  
Precipitation 0.00 in - - ()
Sea Level Pressure  
Sea Level Pressure 29.91 in    
Wind  
Wind Speed 6 mph (ESE)    
Max Wind Speed 12 mph    
Max Gust Speed -    
Visibility 10 miles    
Events      
Averages and records for this station are not official NWS values.
T = Trace of Precipitation, MM = Missing Value Source: NWS Daily Summary

Daily Weather History Graph

Daily Weather History Graph

Search for Another Location

Airport or City:

Trip Planner

Search our weather history database for the weather conditions in past years. The results will help you decide how hot, cold, wet, or windy it might be!

Date:

Astronomy

Jan. 27, 2013 Rise Set
Actual Time 7:50 AM CST 5:16 PM CST
Civil Twilight 7:17 AM CST 5:49 PM CST
Nautical Twilight 6:40 AM CST 6:26 PM CST
Astronomical Twilight 6:04 AM CST 7:01 PM CST
Moon 6:18 PM CST (1/27) 7:38 AM CST (1/27)
Length of Visible Light 10h 31m
Length of Day
9h 25m
Full, 100% of the Moon is Illuminated
Jan 27
Full
Feb 3
Last Quarter
Feb 10
New
Feb 17
First Quarter
Feb 25
Full

Hourly Weather History & Observations

Time (CST) Temp. Windchill Dew Point Humidity Pressure Visibility Wind Dir Wind Speed Gust Speed Precip Events Conditions
12:53 AM 7.0 °F -1.7 °F 1.0 °F 77% 30.11 in 10.0 mi East 4.6 mph - N/A   Clear
1:53 AM 7.0 °F 0.1 °F 1.9 °F 80% 30.09 in 9.0 mi East 3.5 mph - N/A   Clear
2:53 AM 8.1 °F -0.5 °F 1.9 °F 76% 30.08 in 10.0 mi East 4.6 mph - N/A   Clear
3:53 AM 9.0 °F 0.6 °F 3.9 °F 80% 30.04 in 10.0 mi ESE 4.6 mph - N/A   Clear
4:53 AM 9.0 °F 2.4 °F 3.9 °F 80% 30.03 in 10.0 mi NE 3.5 mph - N/A   Clear
5:53 AM 8.6 °F 0.1 °F 3.2 °F 79% 29.91 in 10.0 mi East 4.6 mph - N/A   Clear
6:53 AM 10.0 °F 1.8 °F 5.0 °F 80% 30.01 in 10.0 mi East 4.6 mph - N/A   Clear
7:53 AM 10.9 °F 0.2 °F 6.1 °F 81% 30.00 in 10.0 mi East 6.9 mph - N/A   Clear
8:53 AM 12.9 °F 5.2 °F 7.0 °F 77% 29.99 in 10.0 mi ESE 4.6 mph - N/A   Clear
9:53 AM 17.1 °F 6.6 °F 9.0 °F 71% 29.98 in 10.0 mi East 8.1 mph - N/A   Clear
10:53 AM 21.0 °F 12.4 °F 12.0 °F 68% 29.96 in 10.0 mi ESE 6.9 mph - N/A   Clear
11:53 AM 25.0 °F 16.3 °F 15.1 °F 66% 29.94 in 10.0 mi SE 8.1 mph - N/A   Partly Cloudy
12:17 PM 26.6 °F 16.2 °F 15.8 °F 64% 29.85 in 10.0 mi SE 11.5 mph - N/A   Mostly Cloudy
12:33 PM 26.6 °F 17.5 °F 15.8 °F 64% 29.85 in 10.0 mi SE 9.2 mph - N/A   Scattered Clouds
12:53 PM 27.0 °F 18.0 °F 16.0 °F 63% 29.93 in 10.0 mi SE 9.2 mph - N/A   Partly Cloudy
1:53 PM 28.0 °F 18.6 °F 17.1 °F 63% 29.91 in 10.0 mi SE 10.4 mph - N/A   Overcast
2:53 PM 28.9 °F 21.1 °F 19.0 °F 67% 29.89 in 10.0 mi SE 8.1 mph - N/A   Overcast
3:48 PM 30.2 °F 21.9 °F 19.4 °F 64% 29.80 in 10.0 mi SE 9.2 mph - N/A   Overcast
3:53 PM 30.0 °F 21.7 °F 19.0 °F 64% 29.88 in 10.0 mi SE 9.2 mph - N/A   Overcast
4:53 PM 28.9 °F 21.9 °F 19.0 °F 67% 29.89 in 10.0 mi ESE 6.9 mph - N/A   Overcast
5:53 PM 28.0 °F 21.7 °F 18.0 °F 66% 29.88 in 10.0 mi ESE 5.8 mph - N/A   Overcast
6:53 PM 27.0 °F 21.6 °F 19.0 °F 72% 29.88 in 10.0 mi ESE 4.6 mph - N/A   Overcast
7:53 PM 28.0 °F 20.0 °F 19.9 °F 72% 29.86 in 10.0 mi SE 8.1 mph - N/A   Overcast
8:22 PM 28.4 °F 23.3 °F 21.2 °F 74% 29.77 in 10.0 mi ESE 4.6 mph - N/A   Overcast
8:53 PM 27.0 °F 21.6 °F 21.0 °F 78% 29.85 in 10.0 mi ESE 4.6 mph - N/A   Overcast
9:30 PM 26.6 °F 22.6 °F 21.2 °F 80% 29.77 in 10.0 mi ESE 3.5 mph - N/A   Overcast
9:37 PM 26.6 °F 22.6 °F 21.2 °F 80% 29.77 in 10.0 mi ESE 3.5 mph - N/A   Overcast
9:53 PM 27.0 °F 23.0 °F 21.0 °F 78% 29.85 in 10.0 mi ESE 3.5 mph - N/A   Overcast
10:53 PM 27.0 °F 23.0 °F 21.9 °F 81% 29.84 in 10.0 mi SE 3.5 mph - N/A   Overcast
11:53 PM 27.0 °F 23.0 °F 21.9 °F 81% 29.83 in 9.0 mi SSE 3.5 mph - N/A   Overcast